Hourly Data Report for September 02, 2017

All times are specified in Local Standard Time (LST). Add 1 hour to adjust for Daylight Saving Time where and when it is observed.

BAKER LAKE A
NUNAVUT

64°17'56.000" N
96°04'40.000" W
18.60 m
2300503
71926
YBK

Download Data

Hourly Data (September 2017)
Hourly Data Report for September 2, 2017
Temp Definition
°C
Dew Point Temp Definition
°C
Rel Hum Definition
%
Wind Dir Definition
10's deg

Wind Spd Definition
km/h
Visibility Definition
km
Stn Press Definition
kPa
Hmdx Definition


Wind Chill Definition


Weather Definition


TIME
00:00 Legend Double Dagger 7.8 1.8 66 4 32 24.1 99.87     Cloudy
01:00 Legend Double Dagger 7.3 2.2 70 6 27 24.1 99.89     LegendNANA
02:00 Legend Double Dagger 7.0 1.9 70 5 34 24.1 99.92     LegendNANA
03:00 Legend Double Dagger 6.0 1.4 72 3 22 24.1 99.90     Mostly Cloudy
04:00 Legend Double Dagger 5.7 1.7 75 4 24 24.1 99.94     LegendNANA
05:00 Legend Double Dagger 4.8 1.3 78 3 20 32.2 99.99     LegendNANA
06:00 Legend Double Dagger 4.5 1.2 79 2 17 32.2 100.05     Mostly Cloudy
07:00 Legend Double Dagger 4.7 1.1 78 2 34 32.2 100.01     LegendNANA
08:00 Legend Double Dagger 5.2 1.2 75 3 30 32.2 100.04     LegendNANA
09:00 Legend Double Dagger 5.5 0.8 71 2 39 32.2 100.07     Mostly Cloudy
10:00 Legend Double Dagger 5.5 0.0 67 2 39 32.2 100.09     LegendNANA
11:00 Legend Double Dagger 6.7 -1.0 58 2 43 32.2 100.10     LegendNANA
12:00 Legend Double Dagger 8.8 -0.9 51 2 42 32.2 100.06     Mainly Clear
13:00 Legend Double Dagger 10.0 -0.7 47 2 43 32.2 100.08     LegendNANA
14:00 Legend Double Dagger 10.8 0.0 47 2 37 32.2 100.11     LegendNANA
15:00 Legend Double Dagger 11.6 0.3 45 1 39 32.2 100.13     Mainly Clear
16:00 Legend Double Dagger 11.7 -0.5 43 1 40 32.2 100.15     LegendNANA
17:00 Legend Double Dagger 11.7 -0.5 43 2 37 32.2 100.18     LegendNANA
18:00 Legend Double Dagger 11.0 -0.4 45 2 40 32.2 100.22     Mainly Clear
19:00 Legend Double Dagger 9.7 0.4 52 1 27 32.2 100.23     LegendNANA
20:00 Legend Double Dagger 8.8 0.7 57 36 35 32.2 100.23     LegendNANA
21:00 Legend Double Dagger 7.8 1.1 63 36 34 24.1 100.24     Mainly Clear
22:00 Legend Double Dagger 7.3 1.3 66 1 34 24.1 100.26     LegendNANA
23:00 Legend Double Dagger 6.2 1.5 72 36 31 24.1 100.23     LegendNANA

Notes on Data Quality.

Legend

  • E = Estimated
  • M = Missing
  • NA = Not Available
  • ‡ = Partner data that is not subject to review by the National Climate Archives
Date modified: